Regional Weather Roundup
Issued by NWS

Home | Current Version | Previous Version | Graphics & Text | Print | Product List | Glossary On
Versions: 1 2 3 4 5 6 7 8 9 10 11 12 13 14 15 16 17 18 19 20 21 22 23 24 25 26 27 28 29 30 31 32 33 34 35 36 37 38 39 40 41 42 43 44 45 46 47 48 49 50
000
ASUS44 KMEG 230410
RWRTN
TENNESSEE HOURLY STATE WEATHER ROUNDUP
NATIONAL WEATHER SERVICE MEMPHIS TN
1100 PM CDT WED MAR 22 2017

TNZ002-004-019-021-049-052-054-088>092-230500-
WEST TENNESSEE

CITY           SKY/WX    TMP DP  RH WIND       PRES   REMARKS
MEMPHIS INTL   PTCLDY    57  28  33 NE10      30.29
NWS MEMPHIS      N/A     53 N/A N/A MISG        N/A
JACKSON        CLEAR     51  26  37 E8        30.31R
DYERSBURG      CLEAR     49  29  46 E9        30.32S
SOMERVILLE     CLEAR     52  28  40 VRB3      30.27F
BOLIVAR        CLEAR     52  27  37 NE7       30.29S
PARIS          CLEAR     43  25  49 NE6       30.34R
HUNTINGDON     MOCLDY    46  27  46 E6        30.32S
SAVANNAH       PTCLDY    50  27  40 NE6       30.29S
$$

TNZ008-025-027-028-033-062-065-066-230500-
NORTH MIDDLE TENNESSEE

CITY           SKY/WX    TMP DP  RH WIND       PRES   REMARKS
NASHVILLE      CLEAR     46  21  37 NE10      30.37R
PORTLAND       MOCLDY    43  21  42 NE8       30.38R
CLARKSVILLE    CLEAR     43  22  43 E9        30.36F
SMYRNA         CLEAR     45  22  40 N8        30.37R
COOKEVILLE     CLEAR     41  23  48 N3        30.33F
GALLATIN       CLEAR     45  21  39 NE6       30.40R
CROSSVILLE     PTCLDY    40  21  46 NE7       30.33F
$$

TNZ061-075-076-078-094-096-097-230500-
SOUTH MIDDLE TENNESSEE

CITY           SKY/WX    TMP DP  RH WIND       PRES   REMARKS
FAYETTEVILLE   CLEAR     46  25  42 N7        30.31S
TULLAHOMA      CLEAR     46  12  25 NE8       30.33S
WINCHESTER     CLEAR     46  21  36 N5        30.32S
MCMINNVILLE    CLEAR     43  21  42 NE8       30.33S
COLUMBIA       CLEAR     45  25  45 NE5       30.32S
SHELBYVILLE    CLEAR     43  30  61 CALM      30.34S
$$

TNZ017-018-042-046-047-230500-
NORTHEAST TENNESSEE

CITY           SKY/WX    TMP DP  RH WIND       PRES   REMARKS
TRI CITIES     CLEAR     38  18  44 CALM      30.36S
$$

TNZ012-013-036-069-073-074-230500-
CENTRAL EAST TENNESSEE

CITY           SKY/WX    TMP DP  RH WIND       PRES   REMARKS
KNOXVILLE      MOCLDY    47  20  34 NE12      30.32R
OAK RIDGE      PTCLDY    48  16  27 NE5       30.36R
DOWNTOWN KNOXV CLEAR     43  32  65 CALM      30.35R
GATLINBURG     CLEAR     45  19  36 NE8       30.33R
MORRISTOWN     CLEAR     43  18  36 E5        30.34R
JACKSBORO      CLEAR     37  21  52 CALM      30.39R
$$

TNZ083-085-099-230500-
SOUTHEAST TENNESSEE

CITY           SKY/WX    TMP DP  RH WIND       PRES   REMARKS
CHATTANOOGA    CLEAR     51  25  36 NE7       30.32R
$$

SKY/WX REPORTED AS FAIR MEANS FEW OR NO CLOUDS BELOW
12 THOUSAND FEET.





USA.gov is the U.S. government's official web portal to all federal, state and local government web resources and services.